カタログに戻る

STARLINK-38238

運用中通信SSO
NORAD 100223·PAYLOAD·🇺🇸 United States

打ち上げ Aug 4, 2026 から Vandenberg Space Force Base

Loading…

次のパス (今後24時間)

TLE

最新Source: Space-Track

元期: Sep 14, 2026, 15:02 UTC

1 A0223U 26177L   26257.62688314  .00030179  00000-0  55435-3 0  9995
2 A0223  97.2840 308.4043 0001509  86.0840 274.0584 15.49192612  7526

AllMySatでSTARLINK-38238をリアルタイム追跡

Download on the App Store